Back to catalog

STARLINK-35142

AliveCommunicationsSSO
NORAD 65434·PAYLOAD·🇺🇸 United States

Launched Sep 3, 2025 from Vandenberg Space Force Base

Loading…

Next Passes (next 24 hours)

TLE

FreshSource: CelesTrak SupGP

Epoch: Sep 14, 2026, 15:07 UTC

1 65434C 25194A   26257.63034722 -.00021385  00000+0 -66382-3 0  2577
2 65434  97.2840 107.3014 0001660  85.3555 349.0385 15.33451357    14

Track STARLINK-35142 in real time with AllMySat

Download on the App Store